Lexington Weather

Lexington, Massachusetts, USA

72°F
8/7/2020 11:07am 
  • Lexington Conditions: Clear
  • Temperature: 72.0°F / 22.2°CWarmer 2.4°F than last hour.
  • Dew Point: 63.1°FIncreased 1.4°Fsince last hour.
  • Relative Humidity: 74%Decreased 2.0% since last hour.
  • Wind: Wind from WSW WSW Calm, 10-min avg: 1 mph, gust: 2 mph
  • Barometer: 30.14 in Steady
  • Visibility: 10 miles
  • Rain Today: 0.00 in
  •   

Regional Weather Roundup
for Boston / Norton, MA

        
000
ASUS41 KBOX 030704
RWRBOX

REGIONAL WEATHER ROUNDUP
NATIONAL WEATHER SERVICE BOSTON/NORTON MA
300 AM EDT MON AUG 03 2020

NOTE:  "FAIR" INDICATES FEW OR NO CLOUDS BELOW 12,000 FEET WITH NO 
SIGNIFICANT WEATHER AND/OR OBSTRUCTIONS TO VISIBILITY.

MAZALL-030800-
EASTERN MASSACHUSETTS
  
CITY           SKY/WX    TMP DP  RH WIND       PRES   REMARKS
BOSTON         PTCLDY    78  74  87 SW10      29.86S                  
BEVERLY        CLEAR     76  74  93 S5        29.85S                  
LAWRENCE       CLEAR     76  74  93 SW5       29.88R                  
BEDFORD        CLEAR     77  74  90 SW5       29.85S                  
BLUE HILL      NOT AVBL                                               
NORWOOD        CLEAR     79  74  84 S3        29.87S                  
MARSHFIELD     CLEAR     81  77  89 SW8       29.88R                  
PLYMOUTH       CLEAR     78  75  90 SW12      29.90S                  
TAUNTON        CLEAR     80  75  84 VRB6      29.89R                  
NEW BEDFORD    CLOUDY   N/A N/A N/A SW12      29.90S                  
$$

MAZALL-030800-
CAPE COD AND THE ISLANDS
  
CITY           SKY/WX    TMP DP  RH WIND       PRES   REMARKS
FALMOUTH       CLOUDY    79  77  94 S16       29.92S                  
HYANNIS        CLOUDY    79  76  90 SW12      29.91S                  
CHATHAM        CLOUDY    76  74  93 SW9       29.94S                  
PROVINCETOWN   PTCLDY    76  75  97 S10       29.91S                  
NANTUCKET      CLOUDY    73  72  96 S12       29.95R FOG              
MARTHAS VNYRD  CLOUDY    76  75  97 SW9       29.93S FOG              
$$
 
MAZALL-030800-
CENTRAL AND WESTERN MASSACHUSETTS
  
CITY           SKY/WX    TMP DP  RH WIND       PRES   REMARKS
WORCESTER      MOCLDY    75  73  93 SW12      29.91R                  
FITCHBURG      PTCLDY    78  73  84 S9        29.87R                  
ORANGE         PTCLDY    77  74  90 S8        29.88R                  
SPRINGFIELD    CLEAR     76  75  96 CALM      29.86R                  
WESTFIELD      CLEAR     74  74 100 S5        29.87R FOG              
NORTH ADAMS    CLEAR     72  70  93 CALM      29.87                   
PITTSFIELD     CLEAR     76  66  71 SW12G17   29.89R                  
$$
 
RIZALL-030800-
RHODE ISLAND
  
CITY           SKY/WX    TMP DP  RH WIND       PRES   REMARKS
PROVIDENCE     CLEAR     79  76  90 S9        29.90R                  
NEWPORT        CLOUDY    77  75  93 VRB7      29.91R FOG              
BLOCK ISLAND   CLEAR     75  73  93 SW15      29.92R                  
SMITHFIELD     CLEAR     78  76  93 SW9       29.90S                  
WESTERLY       CLEAR     77  72  84 VRB5      29.91R                  
$$
 
CTZALL-030800-
CONNECTICUT
  
CITY           SKY/WX    TMP DP  RH WIND       PRES   REMARKS
BRADLEY INTL   PTCLDY    77  74  90 S7        29.87R                  
HARTFORD       CLEAR     80  75  84 S6        29.87R                  
BRIDGEPORT     CLEAR     79  74  84 W6        29.89R                  
DANBURY        CLEAR     77  74  90 SW3       29.91S                  
GROTON         CLEAR     77  73  87 SW8       29.89R                  
NEW HAVEN      CLEAR     79  76  90 SW3       29.89R                  
CHESTER        NOT AVBL                                               
MERIDEN        CLEAR     78  73  84 S7        29.88S                  
WILLIMANTIC    CLEAR     79  74  84 SW7       29.89S                  
OXFORD         PTCLDY    76  75  97 VRB3      29.93R                  
$$

MEZ002-015-021-024-NHZ003-005-008-011-012-014-VTZ005-008-030800-
NORTHERN NEW ENGLAND
  
CITY           SKY/WX    TMP DP  RH WIND       PRES   REMARKS
PORTLAND ME    CLOUDY    73  70  90 S8        29.84F FOG              
BANGOR ME      CLOUDY    69  67  93 S15       29.87F FOG              
CONCORD NH     CLOUDY    76  73  91 S6        29.85S                  
MANCHESTER NH  MOCLDY    79  75  87 S9        29.83S                  
NASHUA NH      PTCLDY    77  77 100 VRB3      29.86R                  
PORTSMOUTH NH  PTCLDY    73  71  94 S5        29.84S                  
JAFFREY NH     MOCLDY    76  72  87 SW7       29.90R                  
KEENE NH       CLOUDY    74  73  97 S5        29.86S                  
BURLINGTON VT  CLEAR     76  72  87 S10       29.74R                  
MT. WASHINGTON LGT RAIN  57  57 100 SW41G52     N/A  VSB 1/16         
$$

NYZ052-076-030800-
EASTERN NEW YORK
  
CITY           SKY/WX    TMP DP  RH WIND       PRES   REMARKS
ALBANY         CLEAR     71  70  96 S6        29.84R                  
NEW YORK CITY  PTCLDY    85  70  60 W16       29.90R                  
$$
 
ANZALL-030800-
MARINE OBSERVATIONS
  
STATION/POSITION TIME  TEMP    WIND        PRES    VSBY  WAVE
                       AIR SEA DIR/SP/G                  HT/PER
                 (UTC) (F)     (DEG/KT/KT) (MB)    (MI)  (FT/S)
BOSTON BUOY      0650   73 69  180/ 12/ 16 1010.0F         2/ 4
BUZZARDS BAY     0600          220/ 17/ 20 1013.5R
NANTUCKET SOUND  0640      76  200/ 17/ 21 1012.4R
MASS BAY-STELLWA 0604   72     210/ 14/ 14 1009.0F  1 7/8  3/ 5
ISLE OF SHOALS   NOT AVBL
S OF BLOCK IS    0626      74                N/A           6/ 6
$$

......................KEY.........................
  SKY/WX - SKY CONDITION/PRESENT WEATHER
  TMP    - TEMPERATURE IN FAHRENHEIT
  DWPT   - DEWPOINT IN FAHRENHEIT
  RH     - RELATIVE HUMIDITY IN PERCENT
  WIND   - DIRECTION AND SPEED IN MPH
  PRES   - MEAN SEA LEVEL PRESSURE IN INCHES OF HG
  WCI    - WIND CHILL INDEX
  VSB    - VISIBILITY IN MILES
  HX     - HEAT INDEX
  TC     - TEMPERATURE IN CELSIUS
  VRB    - VARIABLE WIND DIRECTION
  N/A    - NOT AVAILABLE
  
      

Other recent Regional Weather Roundups

Fri Aug 7, 10:04am

Fri Aug 7, 9:04am

Fri Aug 7, 8:04am

Fri Aug 7, 7:04am

Fri Aug 7, 6:04am

Fri Aug 7, 5:04am

Fri Aug 7, 4:04am

Fri Aug 7, 3:04am

Fri Aug 7, 2:04am

Fri Aug 7, 1:05am

Fri Aug 7, 12:04am

Thu Aug 6, 11:04pm

Thu Aug 6, 10:04pm

Thu Aug 6, 9:04pm

Thu Aug 6, 8:04pm

Thu Aug 6, 7:04pm

Thu Aug 6, 6:04pm

Thu Aug 6, 5:04pm

Thu Aug 6, 4:05pm

Thu Aug 6, 3:04pm

Thu Aug 6, 2:05pm

Thu Aug 6, 1:04pm

Thu Aug 6, 12:04pm

Thu Aug 6, 11:04am

Thu Aug 6, 10:04am

Thu Aug 6, 9:04am

Thu Aug 6, 8:04am

Thu Aug 6, 7:04am

Thu Aug 6, 6:04am

Thu Aug 6, 5:04am

Thu Aug 6, 4:04am

Thu Aug 6, 3:04am

Thu Aug 6, 2:05am

Thu Aug 6, 1:04am

Thu Aug 6, 12:04am

Wed Aug 5, 11:04pm

Wed Aug 5, 10:04pm

Wed Aug 5, 9:04pm

Wed Aug 5, 8:05pm

Wed Aug 5, 7:04pm

Wed Aug 5, 6:04pm

Wed Aug 5, 5:04pm

Wed Aug 5, 4:05pm

Wed Aug 5, 3:04pm

Wed Aug 5, 2:04pm

Wed Aug 5, 1:04pm

Wed Aug 5, 12:04pm

Wed Aug 5, 11:04am

Wed Aug 5, 10:04am

Wed Aug 5, 9:04am

Wed Aug 5, 8:04am

Wed Aug 5, 7:04am

Wed Aug 5, 6:04am

Wed Aug 5, 5:04am

Wed Aug 5, 4:04am

Wed Aug 5, 3:04am

Wed Aug 5, 2:05am

Wed Aug 5, 1:04am

Wed Aug 5, 12:05am

Tue Aug 4, 11:05pm

Tue Aug 4, 10:05pm

Tue Aug 4, 9:04pm

Tue Aug 4, 8:04pm

Tue Aug 4, 7:05pm

Tue Aug 4, 6:05pm

Tue Aug 4, 5:05pm

Tue Aug 4, 4:05pm

Tue Aug 4, 3:04pm

Tue Aug 4, 2:05pm

Tue Aug 4, 1:04pm

Tue Aug 4, 12:05pm

Tue Aug 4, 11:04am

Tue Aug 4, 10:04am

Tue Aug 4, 9:04am

Tue Aug 4, 8:04am

Tue Aug 4, 7:04am

Tue Aug 4, 6:04am

Tue Aug 4, 5:04am

Tue Aug 4, 4:04am

Tue Aug 4, 3:04am

Tue Aug 4, 2:04am

Tue Aug 4, 1:04am

Tue Aug 4, 12:04am

Mon Aug 3, 11:04pm

Mon Aug 3, 10:04pm

Mon Aug 3, 9:04pm

Mon Aug 3, 8:05pm

Mon Aug 3, 7:04pm

Mon Aug 3, 6:04pm

Mon Aug 3, 5:04pm

Mon Aug 3, 4:05pm

Mon Aug 3, 3:04pm

Mon Aug 3, 2:04pm

Mon Aug 3, 1:04pm

Mon Aug 3, 12:05pm

Mon Aug 3, 11:04am

Mon Aug 3, 10:04am

Mon Aug 3, 9:05am

Mon Aug 3, 8:04am

Mon Aug 3, 7:04am

Mon Aug 3, 6:04am

Mon Aug 3, 5:04am

Mon Aug 3, 4:04am

Mon Aug 3, 2:04am

Mon Aug 3, 1:04am

Mon Aug 3, 12:05am

Sun Aug 2, 11:04pm

Sun Aug 2, 10:04pm

Sun Aug 2, 9:04pm

Sun Aug 2, 8:04pm

Sun Aug 2, 7:04pm

Sun Aug 2, 6:04pm

Sun Aug 2, 5:04pm

Sun Aug 2, 4:05pm

Sun Aug 2, 3:04pm

Sun Aug 2, 2:05pm

Sun Aug 2, 1:04pm

Sun Aug 2, 12:04pm

Sun Aug 2, 11:04am

Sun Aug 2, 10:04am

Sun Aug 2, 9:05am

Sun Aug 2, 8:05am

Sun Aug 2, 7:04am

Sun Aug 2, 6:04am

Sun Aug 2, 5:04am

Sun Aug 2, 4:05am

Sun Aug 2, 3:04am

Sun Aug 2, 2:04am

Sun Aug 2, 1:04am

Sun Aug 2, 12:05am

Sat Aug 1, 11:04pm

Sat Aug 1, 10:04pm

Sat Aug 1, 9:04pm

Sat Aug 1, 8:05pm

Sat Aug 1, 7:04pm

Sat Aug 1, 6:04pm

Sat Aug 1, 5:05pm

Sat Aug 1, 4:05pm

Sat Aug 1, 3:04pm

Sat Aug 1, 2:04pm

Sat Aug 1, 1:04pm

Sat Aug 1, 12:04pm

Sat Aug 1, 11:05am

Sat Aug 1, 10:05am

Sat Aug 1, 9:04am

Sat Aug 1, 8:04am

Sat Aug 1, 7:04am

Sat Aug 1, 6:04am

Sat Aug 1, 5:04am

Sat Aug 1, 4:05am

Sat Aug 1, 3:04am

Sat Aug 1, 2:04am

Sat Aug 1, 1:04am

Sat Aug 1, 12:05am

Fri Jul 31, 11:05pm

Fri Jul 31, 10:04pm

Fri Jul 31, 9:04pm

Fri Jul 31, 8:05pm

Fri Jul 31, 7:05pm

Fri Jul 31, 6:04pm

Fri Jul 31, 5:04pm

Fri Jul 31, 4:05pm

Fri Jul 31, 3:04pm

Fri Jul 31, 2:05pm

Fri Jul 31, 1:04pm

Fri Jul 31, 12:04pm

Fri Jul 31, 11:04am

Meta data:

ID: 7867409d-f69e-4614-ba67-72bde340823a
Link: https://api.weather.gov/products/7867409d-f69e-4614-ba67-72bde340823a